N9XP-9 Weather Reports


time (UTC)temp
C
wind
direction
speed
KPH
gust
KPH
rain 1hr
cm
rain 24hr
cm
rain mn
cm
humidity
%
barometer
mb
20260906073026 20 20 0.0 1.6 0.00 0.00 0.00 93 1016.6
20260906071525 20 344 0.0 3.2 0.00 0.00 0.00 93 1016.7
20260906070020 20 343 0.0 3.2 0.00 0.00 0.00 93 1016.8
20260906064520 20 6 1.6 4.8 0.00 0.00 0.00 92 1016.8
20260906063018 21 359 1.6 4.8 0.00 0.00 0.00 92 1016.7
20260906061518 21 349 0.0 8.0 0.00 0.00 0.00 91 1016.6
20260906060015 21 357 0.0 12.9 0.00 0.00 0.00 90 1016.5
20260906054513 21 8 1.6 8.0 0.00 0.00 0.00 89 1016.6
20260906053010 21 36 1.6 6.4 0.00 0.00 0.00 89 1016.5
20260906051508 21 352 1.6 11.3 0.00 0.00 0.00 89 1016.4
20260906050006 21 350 1.6 11.3 0.00 0.00 0.00 89 1016.3
20260906044504 21 5 1.6 9.7 0.00 0.00 0.00 89 1016.2
20260906043002 21 353 0.0 8.0 0.00 0.00 0.00 89 1016.1
20260906041600 21 4 1.6 11.3 0.00 0.00 0.00 89 1015.8
20260906040118 21 349 0.0 6.4 0.00 0.00 0.00 89 1015.6
20260906034657 21 3 0.0 8.0 0.00 0.00 0.00 89 1015.5
20260906033106 21 6 1.6 9.7 0.00 0.00 0.00 88 1015.3
20260906031559 21 101 0.0 6.4 0.00 0.00 0.00 87 1015.4
20260906030054 21 316 0.0 14.5 0.00 0.00 0.00 87 1015.3
20260906024605 21 352 0.0 9.7 0.00 0.00 0.00 87 1015.4
20260906023053 22 24 1.6 6.4 0.00 0.00 0.00 87 1015.4
20260906021553 22 335 3.2 9.7 0.00 0.00 0.00 87 1015.3
20260906020054 22 19 3.2 11.3 0.00 0.00 0.00 86 1015.2
20260906014556 22 346 1.6 12.9 0.00 0.00 0.00 86 1015.4
20260906013050 22 25 0.0 8.0 0.00 0.00 0.00 86 1015.4
20260906011548 22 341 3.2 14.5 0.00 0.00 0.00 85 1015.3
20260906010046 22 359 4.8 14.5 0.00 0.00 0.00 85 1015.3
20260906004545 22 352 1.6 14.5 0.00 0.00 0.00 86 1015.2
20260906003044 22 39 4.8 19.3 0.00 0.00 0.00 86 1014.9
20260906001541 22 22 3.2 14.5 0.00 0.00 0.00 86 1014.8
20260906000041 22 349 1.6 9.7 0.00 0.00 0.00 85 1014.5
20260905234537 23 358 3.2 12.9 0.00 0.00 0.00 83 1014.4
20260905233040 24 8 1.6 12.9 0.00 0.00 0.00 82 1014.5
20260905231541 25 12 3.2 16.1 0.00 0.00 0.00 79 1014.2
20260905230032 26 81 0.0 8.0 0.00 0.00 0.00 77 1014.0
20260905224531 26 6 3.2 17.7 0.00 0.00 0.00 75 1013.8
20260905223034 27 214 0.0 12.9 0.00 0.00 0.00 74 1013.7
20260905221534 27 2 3.2 12.9 0.00 0.00 0.00 74 1013.5
20260905220029 27 335 1.6 11.3 0.00 0.00 0.00 72 1013.6
20260905214534 27 34 3.2 11.3 0.00 0.00 0.00 73 1013.7
20260905213029 28 10 1.6 11.3 0.00 0.00 0.00 71 1013.6
20260905211534 27 340 3.2 8.0 0.00 0.00 0.00 73 1013.6
20260905210026 27 6 3.2 12.9 0.00 0.00 0.00 74 1013.7
20260905204528 27 2 3.2 14.5 0.00 0.00 0.00 74 1013.8
20260905203025 26 331 1.6 6.4 0.00 0.00 0.00 78 1013.9
20260905201524 26 18 4.8 9.7 0.00 0.00 0.00 79 1014.0
20260905200024 25 342 6.4 14.5 0.00 0.00 0.00 80 1014.0
20260905194623 25 330 4.8 11.3 0.00 0.00 0.00 81 1014.1
20260905193022 25 3 3.2 11.3 0.00 0.00 0.00 81 1014.0
20260905191522 25 23 3.2 14.5 0.00 0.00 0.00 80 1014.2
20260905190021 25 34 3.2 16.1 0.00 0.00 0.00 81 1014.3
20260905184522 26 352 6.4 14.5 0.00 0.00 0.00 80 1014.2
20260905183020 26 351 8.0 16.1 0.00 0.00 0.00 78 1014.3
20260905181519 26 358 6.4 12.9 0.00 0.00 0.00 79 1014.2
20260905180017 26 359 3.2 19.3 0.00 0.00 0.00 79 1014.1
20260905174517 26 7 6.4 14.5 0.00 0.00 0.00 78 1014.1
20260905173016 27 335 3.2 11.3 0.00 0.00 0.00 77 1014.0
20260905171529 27 25 4.8 12.9 0.00 0.00 0.00 78 1014.0
20260905170015 27 18 4.8 12.9 0.00 0.00 0.00 78 1014.1
20260905164522 27 29 1.6 12.9 0.00 0.00 0.00 78 1014.1
20260905163012 27 342 3.2 8.0 0.00 0.00 0.00 76 1014.1
20260905161511 27 353 4.8 9.7 0.00 0.00 0.00 78 1014.1
20260905160020 27 151 0.0 9.7 0.00 0.00 0.00 79 1014.1
20260905154508 26 262 0.0 9.7 0.00 0.00 0.00 82 1013.9
20260905153005 26 356 3.2 8.0 0.00 0.00 0.00 82 1014.0
20260905151503 25 5 1.6 14.5 0.00 0.00 0.00 85 1013.8
20260905150001 25 8 3.2 12.9 0.00 0.00 0.00 84 1013.6
20260905144501 25 1 6.4 14.5 0.00 0.00 0.00 84 1013.4
20260905143100 25 23 4.8 16.1 0.00 0.00 0.00 85 1013.4
20260905141600 24 354 4.8 11.3 0.00 0.00 0.00 88 1013.4
20260905140101 23 8 1.6 12.9 0.00 0.00 0.00 91 1013.3
20260905134557 23 5 1.6 9.7 0.00 0.00 0.00 92 1013.3
20260905133056 23 22 1.6 12.9 0.00 0.00 0.00 93 1013.4
20260905131556 23 16 4.8 11.3 0.00 0.00 0.00 94 1013.7
20260905130052 23 348 0.0 9.7 0.00 0.00 0.00 94 1013.1
20260905124550 23 25 0.0 8.0 0.00 0.00 0.00 94 1012.7
20260905123050 23 6 0.0 6.4 0.00 0.00 0.00 95 1012.6
20260905121546 23 18 0.0 4.8 0.00 0.00 0.00 94 1012.5
20260905120044 23 10 0.0 3.2 0.00 0.00 0.00 94 1012.3
20260905114542 23 356 1.6 8.0 0.00 0.00 0.00 94 1012.1
20260905113045 23 359 0.0 6.4 0.00 0.00 0.00 94 1011.8
20260905111540 23 20 0.0 4.8 0.00 0.00 0.00 93 1011.8
20260905110038 23 13 0.0 1.6 0.00 0.00 0.00 93 1011.5
20260905104536 23 16 0.0 4.8 0.00 0.00 0.00 93 1011.4
20260905103043 24 6 0.0 1.6 0.00 0.00 0.00 94 1011.5
20260905101536 24 37 0.0 1.6 0.00 0.00 0.00 94 1011.5
20260905100039 24 52 0.0 1.6 0.00 0.00 0.00 94 1011.5
20260905094534 24 86 0.0 0.0 0.00 0.00 0.00 94 1011.5
20260905093044 24 88 0.0 1.6 0.00 0.00 0.00 94 1011.4
20260905091534 24 12 0.0 0.0 0.00 0.00 0.00 94 1011.3
20260905090036 23 12 0.0 0.0 0.00 0.00 0.00 94 1011.3
20260905084531 23 9 0.0 0.0 0.00 0.00 0.00 93 1011.4
20260905083030 23 10 0.0 0.0 0.00 0.00 0.00 93 1011.4
20260905081530 23 8 0.0 0.0 0.00 0.00 0.00 93 1011.4
20260905080028 23 10 0.0 0.0 0.00 0.00 0.00 92 1011.3
20260905074526 23 6 0.0 0.0 0.00 0.00 0.00 92 1011.3